This demonstration page uses our WeatherBlox Daily Observations layout. Learn more.

Left ArrowRight Arrow

39.92423, -83.80882

Hourly Observations for February 15, 2022

Temp ( °F °C ) Dew Point ( °F °C ) Humidity (%) Winds ( mph kmh ) Pressure ( in mb ) Visibility ( mi km ) Precip ( " mm )
12:56 am 00:56 Cloudy 18 -7.8 16 -8.9 92 92 SSE 3 6 30.47 1032 10 16 0.00 0.00
1:56 am 01:56 Clear 15 -9.4 14 -10 95 95 E 3 6 30.47 1032 10 16 0.00 0.00
2:56 am 02:56 Clear 15 -9.4 14 -10 95 95 ENE 5 7 30.48 1032 10 16 0.00 0.00
3:56 am 03:56 Clear 14 -10 14 -10 100 100 Calm 30.49 1033 9 14 0.00 0.00
4:56 am 04:56 Clear 13 -10.6 13 -10.6 100 100 ENE 6 9 30.50 1033 8 13 0.00 0.00
5:56 am 05:56 Clear 14 -10 13 -10.6 95 95 E 7 11 30.50 1033 8 13 0.00 0.00
6:56 am 06:56 Clear 14 -10 13 -10.6 95 95 E 7 11 30.52 1033 9 14 0.00 0.00
7:56 am 07:56 Sunny 15 -9.4 14 -10 95 95 E 7 11 30.53 1034 8 13 0.00 0.00
8:56 am 08:56 Sunny 21 -6.1 18 -7.8 88 88 ESE 8 13 30.55 1035 10 16 0.00 0.00
9:56 am 09:56 Sunny 27 -2.8 20 -6.7 75 75 ESE 9 15 30.56 1035 10 16 0.00 0.00
10:56 am 10:56 Sunny 30 -1.1 21 -6.1 69 69 SE 13 20 30.56 1035 10 16 0.00 0.00
11:56 am 11:56 Sunny 33 0.6 21 -6.1 61 61 ESE 12 19 30.54 1034 10 16 0.00 0.00
12:56 pm 12:56 Sunny 35 1.7 22 -5.6 59 59 ESE 14 22 30.51 1033 10 16 0.00 0.00
1:56 pm 13:56 Sunny 36 2.2 24 -4.4 62 62 ESE 12 19 30.48 1032 10 16 0.00 0.00
2:56 pm 14:56 Sunny 36 2.2 24 -4.4 62 62 ESE 13 20 30.45 1031 10 16 0.00 0.00
3:56 pm 15:56 Sunny 35 1.7 23 -5 61 61 ESE 13 20 30.44 1031 10 16 0.00 0.00
4:56 pm 16:56 Sunny 36 2.2 25 -3.9 64 64 ESE 12 19 30.42 1030 10 16 0.00 0.00
5:56 pm 17:56 Sunny 34 1.1 26 -3.3 73 73 E 10 17 30.40 1030 10 16 0.00 0.00
6:56 pm 18:56 Clear 34 1.1 26 -3.3 73 73 ESE 12 19 30.39 1029 10 16 0.00 0.00
7:56 pm 19:56 Clear 34 1.1 25 -3.9 70 70 ESE 10 17 30.37 1029 10 16 0.00 0.00
8:56 pm 20:56 Clear 35 1.7 24 -4.4 64 64 SE 13 20 30.35 1028 10 16 0.00 0.00
9:56 pm 21:56 Clear 35 1.7 24 -4.4 64 64 SE 14 22 30.32 1027 10 16 0.00 0.00
10:56 pm 22:56 Clear 35 1.7 24 -4.4 64 64 SE 13 20 30.30 1026 10 16 0.00 0.00
11:56 pm 23:56 Clear 36 2.2 25 -3.9 64 64 SSE 13 20 30.28 1025 10 16 0.00 0.00

Powered by AerisWeather